When you browse on this site, cookies collect data to enhance your experience and personalize the content and advertising you see.
Visit our Privacy Policy to learn more. By continuing to use the site, you agree to this use of cookies and data.
  • In Schweiz
  • Länderverzeichnis
  • Für 7 Tage
  • Wassertemperatur
  • Satellitenkarten
  • Wetterkarte
  • Widgets
  • user-avatar
    Anmelden

    Stündliche Wetter Kabul

    Heute, 23 April, Dienstag

    Zeit Temperatur Niederschläge Wind Luftdruck Luftfeuchtigkeit
    00:00 +16°C° 0 mm 1 m/S 610 mmHg 41%
    01:00 +16°C° 0 mm 1 m/S 610 mmHg 43%
    02:00 +15°C° 0 mm 1 m/S 609 mmHg 44%
    03:00 +15°C° 0 mm 1 m/S 609 mmHg 44%
    04:00 +15°C° 0 mm 1 m/S 609 mmHg 45%
    05:00 +13°C° 0 mm 0 m/S 609 mmHg 45%
    06:00 +15°C° 0 mm 1 m/S 609 mmHg 41%
    07:00 +16°C° 0 mm 1 m/S 610 mmHg 36%
    08:00 +18°C° 0 mm 1 m/S 610 mmHg 32%
    09:00 +18°C° 0.1 mm 1 m/S 610 mmHg 33%
    10:00 +18°C° 0.1 mm 1 m/S 610 mmHg 34%
    11:00 +18°C° 0.1 mm 1 m/S 610 mmHg 35%
    12:00 +19°C° 0 mm 1 m/S 610 mmHg 35%
    13:00 +19°C° 0 mm 2 m/S 610 mmHg 35%
    14:00 +19°C° 0 mm 2 m/S 610 mmHg 34%
    15:00 +19°C° 0.1 mm 2 m/S 610 mmHg 35%
    16:00 +19°C° 0.1 mm 3 m/S 610 mmHg 36%
    17:00 +19°C° 0.1 mm 3 m/S 610 mmHg 37%
    18:00 +18°C° 0.2 mm 3 m/S 610 mmHg 40%
    19:00 +18°C° 0.2 mm 2 m/S 610 mmHg 43%
    20:00 +17°C° 0.2 mm 2 m/S 609 mmHg 46%
    21:00 +16°C° 0 mm 2 m/S 609 mmHg 47%
    22:00 +16°C° 0 mm 2 m/S 609 mmHg 49%
    23:00 +15°C° 0 mm 2 m/S 609 mmHg 50%

    Morgen, 24 April, Mittwoch

    Zeit Temperatur Niederschläge Wind Luftdruck Luftfeuchtigkeit
    00:00 +14°C° 0 mm 2 m/S 609 mmHg 52%
    01:00 +14°C° 0 mm 2 m/S 608 mmHg 53%
    02:00 +13°C° 0 mm 2 m/S 608 mmHg 54%
    03:00 +13°C° 0.4 mm 2 m/S 608 mmHg 57%
    04:00 +12°C° 0.4 mm 2 m/S 608 mmHg 60%
    05:00 +12°C° 0.4 mm 2 m/S 608 mmHg 63%
    06:00 +12°C° 0.1 mm 2 m/S 608 mmHg 62%
    07:00 +13°C° 0.1 mm 2 m/S 608 mmHg 61%
    08:00 +13°C° 0.1 mm 2 m/S 609 mmHg 60%
    09:00 +14°C° 0.1 mm 2 m/S 609 mmHg 58%
    10:00 +15°C° 0.1 mm 2 m/S 609 mmHg 56%
    11:00 +16°C° 0.1 mm 2 m/S 609 mmHg 53%
    12:00 +17°C° 0.3 mm 3 m/S 610 mmHg 52%
    13:00 +18°C° 0.3 mm 4 m/S 610 mmHg 50%
    14:00 +19°C° 0.3 mm 4 m/S 610 mmHg 48%
    15:00 +19°C° 0.5 mm 4 m/S 609 mmHg 49%
    16:00 +18°C° 0.5 mm 4 m/S 609 mmHg 51%
    17:00 +18°C° 0.5 mm 4 m/S 609 mmHg 52%
    18:00 +17°C° 0.4 mm 4 m/S 609 mmHg 58%
    19:00 +14°C° 0.4 mm 3 m/S 608 mmHg 64%
    20:00 +13°C° 0.4 mm 3 m/S 608 mmHg 70%
    21:00 +13°C° 0.1 mm 3 m/S 608 mmHg 70%
    22:00 +13°C° 0.1 mm 2 m/S 609 mmHg 71%
    23:00 +13°C° 0.1 mm 2 m/S 609 mmHg 71%

    übermorgen, 25 April, Donnerstag

    Zeit Temperatur Niederschläge Wind Luftdruck Luftfeuchtigkeit
    00:00 +13°C° 0 mm 2 m/S 608 mmHg 70%
    01:00 +12°C° 0 mm 2 m/S 608 mmHg 69%
    02:00 +12°C° 0 mm 2 m/S 608 mmHg 69%
    03:00 +12°C° 0 mm 1 m/S 608 mmHg 68%
    04:00 +11°C° 0 mm 1 m/S 608 mmHg 67%
    05:00 +11°C° 0 mm 1 m/S 608 mmHg 67%
    06:00 +12°C° 0 mm 1 m/S 608 mmHg 61%
    07:00 +12°C° 0 mm 1 m/S 609 mmHg 55%
    08:00 +13°C° 0 mm 1 m/S 610 mmHg 49%
    09:00 +15°C° 0 mm 2 m/S 610 mmHg 42%
    10:00 +16°C° 0 mm 2 m/S 611 mmHg 34%
    11:00 +17°C° 0 mm 2 m/S 611 mmHg 27%
    12:00 +18°C° 0 mm 3 m/S 611 mmHg 24%
    13:00 +19°C° 0 mm 4 m/S 611 mmHg 21%
    14:00 +20°C° 0 mm 4 m/S 611 mmHg 18%
    15:00 +20°C° 0 mm 5 m/S 611 mmHg 18%
    16:00 +20°C° 0 mm 5 m/S 611 mmHg 19%
    17:00 +20°C° 0 mm 5 m/S 611 mmHg 20%
    18:00 +19°C° 0 mm 4 m/S 611 mmHg 23%
    19:00 +17°C° 0 mm 4 m/S 610 mmHg 27%
    20:00 +16°C° 0 mm 3 m/S 610 mmHg 30%
    21:00 +14°C° 0 mm 3 m/S 610 mmHg 31%
    22:00 +14°C° 0 mm 2 m/S 610 mmHg 32%
    23:00 +13°C° 0 mm 2 m/S 610 mmHg 33%

    26 April, Freitag

    Zeit Temperatur Niederschläge Wind Luftdruck Luftfeuchtigkeit
    00:00 +13°C° 0 mm 2 m/S 609 mmHg 34%
    01:00 +12°C° 0 mm 2 m/S 609 mmHg 35%
    02:00 +12°C° 0 mm 1 m/S 608 mmHg 36%
    03:00 +11°C° 0 mm 1 m/S 608 mmHg 38%
    04:00 +11°C° 0 mm 1 m/S 608 mmHg 40%
    05:00 +10°C° 0 mm 1 m/S 608 mmHg 42%
    06:00 +11°C° 0 mm 1 m/S 608 mmHg 38%
    07:00 +12°C° 0 mm 1 m/S 609 mmHg 34%
    08:00 +13°C° 0 mm 1 m/S 610 mmHg 30%
    09:00 +14°C° 0 mm 1 m/S 610 mmHg 28%
    10:00 +16°C° 0 mm 1 m/S 611 mmHg 25%
    11:00 +18°C° 0 mm 1 m/S 611 mmHg 23%
    12:00 +18°C° 0 mm 2 m/S 611 mmHg 22%
    13:00 +19°C° 0 mm 2 m/S 611 mmHg 21%
    14:00 +19°C° 0 mm 2 m/S 611 mmHg 19%
    15:00 +19°C° 0 mm 3 m/S 611 mmHg 20%
    16:00 +19°C° 0 mm 3 m/S 611 mmHg 20%
    17:00 +19°C° 0 mm 3 m/S 611 mmHg 20%
    18:00 +18°C° 0 mm 3 m/S 610 mmHg 23%
    19:00 +16°C° 0 mm 3 m/S 610 mmHg 25%
    20:00 +14°C° 0 mm 3 m/S 610 mmHg 27%
    21:00 +13°C° 0 mm 3 m/S 610 mmHg 29%
    22:00 +14°C° 0 mm 2 m/S 610 mmHg 30%
    23:00 +13°C° 0 mm 2 m/S 610 mmHg 32%

    27 April, Samstag

    Zeit Temperatur Niederschläge Wind Luftdruck Luftfeuchtigkeit
    00:00 +13°C° 0 mm 2 m/S 610 mmHg 33%
    01:00 +12°C° 0 mm 2 m/S 609 mmHg 33%
    02:00 +12°C° 0 mm 2 m/S 609 mmHg 34%
    03:00 +11°C° 0 mm 1 m/S 609 mmHg 35%
    04:00 +11°C° 0 mm 1 m/S 609 mmHg 35%
    05:00 +10°C° 0 mm 1 m/S 608 mmHg 36%
    06:00 +11°C° 0 mm 1 m/S 609 mmHg 32%
    07:00 +12°C° 0 mm 1 m/S 610 mmHg 28%
    08:00 +14°C° 0 mm 1 m/S 610 mmHg 25%
    09:00 +15°C° 0 mm 1 m/S 611 mmHg 23%
    10:00 +16°C° 0 mm 1 m/S 611 mmHg 22%
    11:00 +18°C° 0 mm 1 m/S 611 mmHg 21%
    12:00 +18°C° 0 mm 2 m/S 611 mmHg 21%
    13:00 +19°C° 0 mm 2 m/S 611 mmHg 20%
    14:00 +19°C° 0 mm 2 m/S 611 mmHg 19%
    15:00 +19°C° 0 mm 3 m/S 610 mmHg 20%
    16:00 +19°C° 0 mm 3 m/S 610 mmHg 21%
    17:00 +19°C° 0 mm 4 m/S 610 mmHg 21%
    18:00 +18°C° 0 mm 4 m/S 610 mmHg 24%
    19:00 +16°C° 0 mm 3 m/S 610 mmHg 28%
    20:00 +14°C° 0 mm 3 m/S 610 mmHg 31%
    21:00 +14°C° 0 mm 3 m/S 610 mmHg 33%
    22:00 +14°C° 0 mm 2 m/S 609 mmHg 34%
    23:00 +13°C° 0 mm 2 m/S 609 mmHg 36%

    28 April, Sonntag

    Zeit Temperatur Niederschläge Wind Luftdruck Luftfeuchtigkeit
    00:00 +13°C° 0 mm 2 m/S 609 mmHg 37%
    01:00 +12°C° 0 mm 2 m/S 609 mmHg 38%
    02:00 +12°C° 0 mm 1 m/S 608 mmHg 40%
    03:00 +11°C° 0 mm 1 m/S 608 mmHg 40%
    04:00 +11°C° 0 mm 1 m/S 608 mmHg 40%
    05:00 +11°C° 0 mm 1 m/S 608 mmHg 40%
    06:00 +12°C° 0 mm 1 m/S 608 mmHg 36%
    07:00 +13°C° 0 mm 1 m/S 609 mmHg 32%
    08:00 +14°C° 0 mm 1 m/S 610 mmHg 28%
    09:00 +15°C° 0 mm 1 m/S 610 mmHg 26%
    10:00 +16°C° 0 mm 1 m/S 610 mmHg 24%
    11:00 +18°C° 0 mm 1 m/S 611 mmHg 22%
    12:00 +18°C° 0 mm 2 m/S 611 mmHg 21%
    13:00 +19°C° 0 mm 2 m/S 611 mmHg 20%
    14:00 +20°C° 0 mm 3 m/S 611 mmHg 19%
    15:00 +20°C° 0 mm 3 m/S 610 mmHg 18%
    16:00 +20°C° 0 mm 3 m/S 610 mmHg 18%
    17:00 +20°C° 0 mm 4 m/S 610 mmHg 18%
    18:00 +19°C° 0 mm 3 m/S 610 mmHg 21%
    19:00 +17°C° 0 mm 3 m/S 609 mmHg 24%
    20:00 +16°C° 0 mm 2 m/S 609 mmHg 26%
    21:00 +15°C° 0 mm 2 m/S 609 mmHg 28%
    22:00 +15°C° 0 mm 2 m/S 609 mmHg 29%
    23:00 +14°C° 0 mm 2 m/S 609 mmHg 30%
    Mehr zeigen